| time (UTC) | temp F | wind direction | speed MPH | gust MPH | rain 1hr in | rain 24hr in | rain mn in | humidity % | barometer mb |
| 20260505054016 | 70 | 185 | 4.0 | 9.0 | 0.00 | 0.00 | 0.00 | 61 | |
| 20260505053017 | 70 | 188 | 3.0 | 6.0 | 0.00 | 0.00 | 0.00 | 61 | |
| 20260505052037 | 70 | 183 | 5.0 | 8.0 | 0.00 | 0.00 | 0.00 | 61 | |
| 20260505051017 | 69 | 183 | 5.0 | 10.0 | 0.00 | 0.00 | 0.00 | 62 | |
| 20260505041017 | 70 | 187 | 3.0 | 5.0 | 0.00 | 0.00 | 0.00 | 61 | |
| 20260505040017 | 70 | 184 | 3.0 | 8.0 | 0.00 | 0.00 | 0.00 | 61 | |
| 20260505035017 | 70 | 171 | 2.0 | 5.0 | 0.00 | 0.00 | 0.00 | 61 | |
| 20260505034037 | 70 | 182 | 3.0 | 7.0 | 0.00 | 0.00 | 0.00 | 61 | |
| 20260505033056 | 70 | 179 | 2.0 | 6.0 | 0.00 | 0.00 | 0.00 | 61 | |
| 20260505032017 | 70 | 184 | 2.0 | 4.0 | 0.00 | 0.00 | 0.00 | 61 | |
| 20260505031016 | 70 | 188 | 3.0 | 6.0 | 0.00 | 0.00 | 0.00 | 61 | |
| 20260505030017 | 69 | 178 | 3.0 | 7.0 | 0.00 | 0.00 | 0.00 | 61 | |
| 20260505025017 | 69 | 174 | 2.0 | 5.0 | 0.00 | 0.00 | 0.00 | 61 | |
| 20260505024016 | 68 | 165 | 1.0 | 2.0 | 0.00 | 0.00 | 0.00 | 61 | |
| 20260505023017 | 68 | 175 | 1.0 | 3.0 | 0.00 | 0.00 | 0.00 | 61 | |
| 20260505022018 | 68 | 177 | 2.0 | 3.0 | 0.00 | 0.00 | 0.00 | 61 | |
| 20260505021016 | 68 | 172 | 2.0 | 3.0 | 0.00 | 0.00 | 0.00 | 61 | |
| 20260505020037 | 69 | 175 | 2.0 | 3.0 | 0.00 | 0.00 | 0.00 | 60 | |
| 20260505015016 | 69 | 175 | 2.0 | 3.0 | 0.00 | 0.00 | 0.00 | 60 | |
| 20260505014017 | 70 | 172 | 2.0 | 5.0 | 0.00 | 0.00 | 0.00 | 60 | |
| 20260505013017 | 70 | 175 | 2.0 | 3.0 | 0.00 | 0.00 | 0.00 | 60 | |
| 20260505012016 | 71 | 174 | 2.0 | 3.0 | 0.00 | 0.00 | 0.00 | 59 | |
| 20260505011017 | 71 | 176 | 2.0 | 6.0 | 0.00 | 0.00 | 0.00 | 59 | |
| 20260505010017 | 72 | 174 | 2.0 | 4.0 | 0.00 | 0.00 | 0.00 | 59 | |
| 20260505005017 | 73 | 178 | 3.0 | 5.0 | 0.00 | 0.00 | 0.00 | 58 | |
| 20260505004017 | 74 | 173 | 3.0 | 5.0 | 0.00 | 0.00 | 0.00 | 58 | |
| 20260505003017 | 74 | 181 | 3.0 | 4.0 | 0.00 | 0.00 | 0.00 | 58 | |
| 20260505002017 | 75 | 179 | 3.0 | 5.0 | 0.00 | 0.00 | 0.00 | 57 | |
| 20260505001018 | 76 | 186 | 4.0 | 8.0 | 0.00 | 0.00 | 0.00 | 57 | |
| 20260505000017 | 77 | 178 | 3.0 | 6.0 | 0.00 | 0.00 | 0.00 | 57 | |
| 20260504235017 | 78 | 190 | 3.0 | 6.0 | 0.00 | 0.00 | 0.00 | 57 | |
| 20260504234016 | 78 | 183 | 4.0 | 6.0 | 0.00 | 0.00 | 0.00 | 57 | |
| 20260504233037 | 78 | 189 | 4.0 | 11.0 | 0.00 | 0.00 | 0.00 | 56 | |
| 20260504232017 | 80 | 190 | 6.0 | 10.0 | 0.00 | 0.00 | 0.00 | 56 | |
| 20260504231016 | 81 | 183 | 4.0 | 10.0 | 0.00 | 0.00 | 0.00 | 57 | |
| 20260504230017 | 81 | 183 | 3.0 | 6.0 | 0.00 | 0.00 | 0.00 | 58 | |
| 20260504225016 | 81 | 184 | 3.0 | 6.0 | 0.00 | 0.00 | 0.00 | 59 | |
| 20260504224017 | 79 | 168 | 1.0 | 3.0 | 0.00 | 0.00 | 0.00 | 59 | |
| 20260504223017 | 78 | 161 | 1.0 | 3.0 | 0.00 | 0.00 | 0.00 | 59 | |
| 20260504222016 | 79 | 175 | 1.0 | 2.0 | 0.00 | 0.00 | 0.00 | 58 | |
| 20260504221017 | 79 | 175 | 2.0 | 2.0 | 0.00 | 0.00 | 0.00 | 58 | |
| 20260504220017 | 80 | 192 | 3.0 | 4.0 | 0.00 | 0.00 | 0.00 | 58 | |
| 20260504215017 | 80 | 177 | 2.0 | 3.0 | 0.00 | 0.00 | 0.00 | 58 | |
| 20260504214016 | 80 | 185 | 3.0 | 6.0 | 0.00 | 0.00 | 0.00 | 57 | |
| 20260504213016 | 81 | 187 | 3.0 | 6.0 | 0.00 | 0.00 | 0.00 | 58 | |
| 20260504212017 | 81 | 191 | 2.0 | 5.0 | 0.00 | 0.00 | 0.00 | 57 | |
| 20260504211017 | 82 | 260 | 2.0 | 4.0 | 0.00 | 0.00 | 0.00 | 58 | |
| 20260504210017 | 81 | 191 | 2.0 | 5.0 | 0.00 | 0.00 | 0.00 | 58 | |
| 20260504205017 | 80 | 192 | 4.0 | 8.0 | 0.00 | 0.00 | 0.00 | 59 | |
| 20260504204016 | 79 | 200 | 3.0 | 7.0 | 0.00 | 0.00 | 0.00 | 59 | |
| 20260504203017 | 80 | 207 | 3.0 | 6.0 | 0.00 | 0.00 | 0.00 | 58 | |
| 20260504202017 | 80 | 189 | 3.0 | 6.0 | 0.00 | 0.00 | 0.00 | 58 | |
| 20260504201017 | 83 | 183 | 5.0 | 8.0 | 0.00 | 0.00 | 0.00 | 57 | |
| 20260504200017 | 83 | 188 | 4.0 | 9.0 | 0.00 | 0.00 | 0.00 | 60 | |
| 20260504195017 | 78 | 193 | 2.0 | 6.0 | 0.00 | 0.00 | 0.00 | 62 | |
| 20260504194017 | 74 | 202 | 2.0 | 6.0 | 0.00 | 0.00 | 0.00 | 64 | |
| 20260504193017 | 71 | 198 | 2.0 | 4.0 | 0.00 | 0.00 | 0.00 | 64 | |
| 20260504192016 | 69 | 187 | 1.0 | 2.0 | 0.00 | 0.00 | 0.00 | 64 | |
| 20260504191017 | 69 | 184 | 2.0 | 4.0 | 0.00 | 0.00 | 0.00 | 63 | |
| 20260504190017 | 70 | 183 | 2.0 | 4.0 | 0.00 | 0.00 | 0.00 | 61 | |
| 20260504185017 | 71 | 182 | 2.0 | 6.0 | 0.00 | 0.00 | 0.00 | 60 | |
| 20260504184017 | 73 | 188 | 4.0 | 10.0 | 0.00 | 0.00 | 0.00 | 59 | |
| 20260504183017 | 75 | 194 | 5.0 | 8.0 | 0.00 | 0.00 | 0.00 | 58 | |
| 20260504182017 | 77 | 191 | 5.0 | 10.0 | 0.00 | 0.00 | 0.00 | 57 | |
| 20260504181017 | 78 | 189 | 5.0 | 12.0 | 0.00 | 0.00 | 0.00 | 57 | |
| 20260504180018 | 80 | 193 | 4.0 | 8.0 | 0.00 | 0.00 | 0.00 | 57 | |
| 20260504175017 | 79 | 194 | 5.0 | 10.0 | 0.00 | 0.00 | 0.00 | 58 | |
| 20260504174017 | 78 | 214 | 2.0 | 4.0 | 0.00 | 0.00 | 0.00 | 59 | |
| 20260504173017 | 77 | 179 | 4.0 | 8.0 | 0.00 | 0.00 | 0.00 | 59 | |
| 20260504172016 | 76 | 200 | 3.0 | 4.0 | 0.00 | 0.00 | 0.00 | 59 | |
| 20260504171017 | 76 | 207 | 2.0 | 5.0 | 0.00 | 0.00 | 0.00 | 59 | |
| 20260504151017 | 73 | 185 | 4.0 | 7.0 | 0.00 | 0.00 | 0.00 | 59 | |
| 20260504141016 | 66 | 189 | 4.0 | 6.0 | 0.00 | 0.00 | 0.00 | 62 | |
| 20260504081017 | 54 | 178 | 2.0 | 3.0 | 0.00 | 0.00 | 0.00 | 60 |